User: anonymous   Login
Location: Unspecified
(0.0000°N, 0.0000°E)
Time: 12:10:15
(UTC+00:00)
Language:

Kosmos-2100 - Orbit

View from above orbital plane
View from above orbital plane
View from above satellite
View from above satellite

Ground track
Ground track

The orbit data is extracted from the following two-line orbital elements,

1 20804U 90083A   18347.66818003 +.00000032 +00000-0 +17507-4 0  9998
2 20804 082.9406 038.2988 0036787 002.9439 109.2218 13.74319617416513
Epoch (UTC): 13 December 2018 16:02:10
Eccentricity: 0.0036787
inclination: 82.9406°
perigee height: 957 km
apogee height: 1011 km
right ascension of ascending node: 38.2988°
argument of perigee: 2.9439°
revolutions per day: 13.74319617
mean anomaly at epoch: 109.2218°
orbit number at epoch: 41651

The dashed part of the orbit path shows where the satellite is in the earth's shadow,  

DLR